Location: Arthez
(43.0833°N, 0.2500°W)
Time: 08:19:55
(UTC+00:00)

Cosmos 2360 Rocket - Pass Details

Date: 23 October 2021
Orbit: 832 x 846 km, 71.0° (Epoch: 02 December)

Event Time Altitude Azimuth Distance (km) Brightness Sun altitude
Rises 20:12:21 0° 237° (WSW) 3,379 5.8 -34.5°
Reaches altitude 10° 20:15:08 10° 249° (WSW) 2,451 5.1 -35.0°
Maximum altitude 20:19:53 27° 307° (NW) 1,554 4.0 -35.8°
Enters shadow 20:22:30 20° 347° (NNW) 1,877 4.2 -36.3°
